STARLINK-1321, 45573

Orbit data source: Space-Track

STARLINK-1321, 45573 is a payload satellite owned by SpaceX/Seattle (US) in LEO that was launched on Wed, 22 Apr 2020 UTC via an FALCON 9 launch vehicle from the Air Force Eastern Test Range (AFETR). Payload-class satellites include a variety of spacecraft equipped with specific instruments for various scientific and technological missions. These include communications satellites like Starlink; space stations such as the ISS; scientific satellites like the Hubble; Earth observation satellites from companies like Planet Labs, Umbra, and HawkEye 360; GPS; miniature CubeSats for education and research; and military/defense satellites.

Loading next visibility...
Identifier
45573, 2020-025AU
Orbit
LEO
Country
Flag of USUS
Related business
Manufacturer
SpaceX/Seattle
Mission
Operational Commercial Communications
Bus & Motor
STARLINK, Unknown motor
Mass
260 kg wet, ~248 kg dry
Launch date (UTC)
2020-04-22 (6 years ago)
Launch vehicle
FALCON 9
Launch site
Air Force Eastern Test Range (AFETR)
Object type
Payload
Rocket body
Debris
Shape & HBR
Box + 1 Pan, 10.1 m
Radar Cross Section
13.562 m², Large (>1 m²)

Expand to show TLE details & history
Last TLE update: 8 hours ago

TLE from 8 hours ago
0 STARLINK-1321
1 45573U 20025AU  25298.79127389 -.00002427  00000-0 -14412-3 0  9997
2 45573  53.0556 322.2034 0001375  89.9265 270.1881 15.06394471304870
Epoch: 2025-10-25T18:59Z
TLE epoch observation values (Epoch: 2025-10-25T18:59:26.064Z)
Latitude
-0.00005°
Longitude
2.92801°
Altitude
548.105 km
Speed
7.589 km/s
True Right ascension
21h 28m 48s
True Declination
0° 00' 00"
Sunlit
Object was in daylight at epoch
Visualization orbit readout
Latitude
Unknown
Longitude
Unknown
Altitude
Unknown
Speed
Unknown
Apparent Right ascension
Unknown
Apparent Declination
Unknown
Sunlit
N/A
Visualization observer readout
Local Sidereal Time
22:01:14
Azimuth
Unknown
Elevation
Unknown
Doppler factor
Unknown
Orbital elements
Apogee altitude
548.451 km
Perigee altitude
546.547 km
Semi-major axis
6,925.636 km
Eccentricity
0.00014
Inclination
53.0556°
RAAN
322.2034°
Arg. of periapsis
89.9265°
True anomaly
270.17234°
Mean anomaly
270.1881°
Eccentric anomaly
270.18022°
Mean motion
3.76577 °/min
Orbital period
95.6 mins
BSTAR
-0.00014412
Loading maneuver chart data...
Computing Atmospheric mass density...

Documentation

Showing up to 5 results
|